Weather Roundup
Issued by NWS Chicago, IL

Home | Current Version | Previous Version | Text Only | Print | Product List | Glossary Off
Versions: 1 2 3 4 5 6 7 8 9 10 11 12 13 14 15 16 17 18 19 20 21 22 23 24 25 26 27 28 29 30 31 32 33 34 35 36 37 38 39 40 41 42 43 44 45 46 47 48 49 50

000
NZUS59 KLOT 222110
HRRLOT

CHICAGO AREA WEATHER ROUNDUP
NATIONAL WEATHER SERVICE CHICAGO/ROMEOVILLE IL
300 PM CST MON DEC 22 2014

NOTE: "FAIR" INDICATES FEW OR NO CLOUDS BELOW 12,000 FEET WITH NO
SIGNIFICANT WEATHER AND/OR OBSTRUCTIONS TO VISIBILITY.

* THESE STATIONS ARE NOT UNDER NWS QUALITY CONTROL. THEY ALSO MAY NOT
  REPORT WEATHER SUCH AS PRECIPITATION OR FOG.

ILZ005-006-012>014-019>023-222200-
NORTHEAST ILLINOIS

CITY           SKY/WX    TMP DP  RH WIND       PRES   REMARKS
OHARE          LGT RAIN  36  34  92 E13       29.71F FOG
MIDWAY         LGT RAIN  39  36  89 E8        29.73F FOG
AURORA         LGT RAIN  38  35  89 E14       29.68F FOG
LANSING*       RAIN      38  37  94 SE12      29.73F
JOLIET*        LGT RAIN  37  36  96 SE14      29.70S
WAUKEGAN       LGT RAIN  35  33  92 E12       29.73F FOG     WCI  27
DUPAGE AIRPORT LGT RAIN  37  35  92 E12       29.68F FOG
WHEELING       LGT RAIN  36  33  89 E7        29.74F FOG
KANKAKEE*      LGT RAIN  38  38  97 SE10      29.71F
MORRIS*        LGT RAIN  38  38 100 E13       29.67F
LEWIS AIRPORT* LGT RAIN  38  38  99 SE12G17   29.70F
NORTHERLY IS     N/A     36  34  92 E8          N/A
$$

WIZ051-052-058>065-066-070>072-222200-
SOUTHEAST WISCONSIN

CITY           SKY/WX    TMP DP  RH WIND       PRES   REMARKS
MILWAUKEE      LGT RAIN  36  33  89 E13       29.76F FOG
KENOSHA*       LGT SNOW  36  34  92 E13       29.74F FOG
RACINE*        LGT RAIN  36  33  89 E14       29.77F FOG
BURLINGTON     MIX PCPN  33  33  98 E13       29.72F WCI  24
WAUKESHA       LGT RAIN  34  32  93 E14       29.74F VSB 1   WCI  24
WEST BEND      LGT RAIN  34  32  93 E7        29.76F WCI  28
$$

INZ001>003-010>013-019-020-222200-
NORTHWEST INDIANA

CITY           SKY/WX    TMP DP  RH WIND       PRES   REMARKS
GARY*          LGT RAIN  39  34  81 SE12      29.74F
MICHIGAN CITY* NOT AVBL
RENSSELAER*    NOT AVBL
VALPARAISO     LGT RAIN  37  36  96 SE12      29.75F FOG
$$

LMZ740>746-222200-
SOUTHERN LAKE MICHIGAN

STATION/POSITION TIME  SKY/WX   TEMP WIND        PRES    VSBY
                                AIR  DIR/SP/G
                 (UTC)          (F)  (DEG/KT/KT) (MB)    (MI)
HARRISON CRIB    2100            36  120/ 15/ 17   N/A
BURNHAM HARBOR   2100            36  100/  8/  9   N/A
CALUMET HARBOR   2100            38  110/  9/ 13 1005.9F
BURNS HARBOR     NOT AVBL
MICHIGAN CITY    NOT AVBL
$$

ABBREVIATIONS USED IN REMARKS
   TC - TEMPERATURE IN CELSIUS
  WCI - WIND CHILL INDEX
   HX - HEAT INDEX
  VSB - VISIBILITY
$$


USA.gov is the U.S. government's official web portal to all federal, state and local government web resources and services.